Theta_e
311 310 307 306 308 311 316 319 319 318 318 318 317 317 316 315 315 313 312 312 312 311 311 310 310 309 309 308 307 308 310 311 311 311 311 311 311 311 310 310 309 309 308 308 308 307 307 307 306 306 306 307 307 308 308 308 308 308 308 308 307 307 306 305 305 305 305 305 306 307 308 309 310 311
309 309 308 308 308 308 312 317 318 317 317 316 316 316 317 316 315 314 313 313 312 311 310 310 310 310 310 309 310 310 311 311 312 312 311 310 310 310 309 309 309 309 308 308 308 307 307 306 306 306 305 306 306 307 307 307 308 307 308 307 308 307 307 307 306 306 306 305 305 306 306 307 307 308
309 309 309 310 311 310 310 312 314 314 314 314 314 315 316 316 316 315 314 313 313 312 311 310 310 310 311 311 312 312 312 311 311 311 310 310 310 310 310 310 310 310 310 309 307 307 307 307 306 306 305 305 305 305 306 306 307 307 307 307 307 307 306 306 306 306 306 306 305 305 305 305 305 306
312 311 309 309 311 312 310 311 312 313 313 313 314 314 314 315 315 315 314 312 311 312 312 312 312 312 312 312 313 313 312 311 311 310 310 310 310 310 310 310 310 309 309 308 306 304 304 305 305 304 304 304 304 304 304 305 305 306 306 306 306 306 306 306 306 305 305 305 305 305 305 305 305 305
315 314 313 311 309 310 311 312 312 311 312 313 314 314 314 315 315 315 315 314 313 313 313 313 314 313 313 312 312 312 312 312 312 310 310 311 310 310 310 310 310 309 308 307 304 302 302 302 303 303 302 302 303 303 304 304 304 304 305 305 305 306 305 305 305 305 304 304 304 305 305 305 305 305
316 316 316 314 310 309 312 314 313 311 312 314 315 315 316 316 317 317 316 316 316 315 314 314 314 314 314 313 312 312 312 313 312 311 311 311 311 310 310 310 310 310 309 307 303 301 302 302 302 302 302 302 302 302 303 303 303 304 304 304 304 304 304 305 304 304 304 304 304 304 304 304 304 304
317 317 317 317 314 313 312 313 313 312 313 314 314 316 316 316 317 317 317 317 317 316 316 315 315 315 315 314 313 313 313 313 313 312 312 312 311 311 311 310 310 310 309 306 303 302 302 301 301 301 301 301 301 301 302 302 302 303 303 303 303 303 303 303 303 303 303 303 303 303 303 303 303 303
319 318 318 319 318 316 315 315 315 313 313 314 314 316 316 316 316 316 316 317 317 317 317 316 316 316 316 315 314 314 313 313 313 313 313 312 311 311 311 310 310 309 306 304 303 303 302 301 301 301 301 301 301 301 301 301 301 301 302 302 302 302 302 302 302 302 302 302 302 302 302 302 302 302
320 319 319 320 319 318 317 317 317 316 315 315 315 316 317 317 317 316 316 318 318 317 317 317 317 316 316 315 315 315 314 313 313 313 312 312 311 311 311 310 309 307 304 303 304 304 303 302 301 300 301 300 301 301 301 301 301 301 301 301 301 301 301 301 301 301 301 301 301 301 301 301 302 302
321 319 320 320 320 319 318 317 318 317 316 316 316 317 317 317 317 317 317 318 318 318 317 317 317 316 316 315 315 314 313 312 312 312 312 312 312 311 310 310 308 307 304 304 305 305 304 302 301 300 300 300 300 300 300 301 300 300 301 300 300 300 300 300 299 299 300 300 300 300 300 301 301 301
320 319 320 320 320 320 319 318 318 318 317 317 316 316 316 316 317 317 317 317 317 317 317 317 316 316 316 315 314 314 313 313 312 312 312 312 311 310 310 309 308 307 305 304 305 305 304 302 300 300 300 300 300 300 300 300 300 300 300 300 299 299 299 299 299 299 299 299 299 299 299 300 299 300
318 318 318 319 320 321 321 320 319 318 318 317 317 316 316 316 316 316 317 317 317 317 316 316 316 316 315 315 314 314 314 313 313 312 312 312 310 310 310 309 308 306 305 304 303 303 303 301 300 299 300 300 300 300 300 300 299 299 299 299 299 299 298 298 298 298 299 299 299 299 298 299 299 299
317 318 316 316 319 320 321 321 319 319 318 318 318 317 316 316 316 316 316 316 316 315 316 315 315 315 315 315 315 314 314 314 313 312 312 311 310 310 310 309 307 306 304 303 302 302 301 300 299 299 299 299 299 300 300 300 300 300 299 299 299 299 299 298 298 298 298 298 298 298 298 298 298 299
316 316 315 316 319 319 320 320 319 319 319 319 318 318 318 317 317 316 316 315 315 314 315 315 314 314 314 314 314 314 313 313 312 312 311 310 310 310 309 309 307 305 303 302 301 301 300 299 299 299 299 300 300 301 301 301 300 300 299 300 300 299 299 299 299 299 299 299 299 299 299 298 298 298
316 315 315 317 318 317 317 318 318 318 318 318 318 318 318 318 317 317 316 315 315 314 314 314 314 314 314 314 313 313 313 312 312 311 311 310 310 309 309 308 306 304 302 301 300 300 299 299 300 300 300 301 301 301 301 301 300 300 300 300 300 300 300 299 299 299 299 299 299 299 299 299 298 298
317 316 316 316 316 316 316 314 313 313 314 315 317 318 318 318 317 317 316 316 315 315 314 314 314 314 313 313 312 312 312 312 311 311 310 309 309 308 308 307 305 302 300 299 299 299 300 300 301 301 301 301 301 301 301 300 301 301 301 300 300 300 300 299 299 299 299 299 299 299 298 298 298 298
317 317 316 316 316 315 314 311 310 310 308 309 312 316 317 317 317 317 316 316 314 314 314 314 313 313 313 312 312 312 312 311 310 310 309 308 308 307 306 304 302 301 299 299 300 300 300 301 302 302 301 301 301 301 300 300 300 300 300 300 300 300 299 299 299 298 298 298 298 298 298 298 297 297
314 314 315 316 314 312 311 310 308 307 305 305 309 312 314 315 316 316 316 316 315 314 314 314 313 313 312 311 310 310 310 309 308 308 308 307 306 305 304 302 300 299 299 300 301 301 301 302 302 302 302 301 301 301 300 300 300 300 300 300 299 299 299 299 298 298 298 298 298 298 298 298 298 297
306 307 312 314 311 308 310 310 307 305 305 305 306 309 310 312 314 315 315 315 314 314 314 313 313 311 310 309 309 308 308 307 307 307 306 305 304 302 301 300 299 298 299 301 302 302 302 302 301 301 301 301 301 300 300 300 300 299 299 299 299 299 299 298 298 298 297 297 297 297 297 297 297 297
303 305 308 309 307 308 310 310 307 307 308 308 307 306 307 307 309 312 314 314 313 313 312 311 310 310 309 308 308 307 307 307 306 305 304 302 301 299 298 298 297 298 299 300 301 301 301 300 300 301 301 300 300 300 300 299 299 299 299 299 299 298 298 298 298 298 297 297 297 297 297 297 297 297
305 304 304 304 305 307 306 306 307 308 309 309 309 309 307 305 305 307 310 311 311 310 310 309 308 308 308 307 307 306 306 305 304 302 301 300 299 298 297 297 297 298 298 299 299 299 300 300 300 300 300 300 299 299 299 298 298 299 299 298 298 298 298 298 297 297 297 297 297 297 297 296 296 296
307 305 304 303 304 304 304 304 305 306 308 310 310 310 309 307 306 306 306 308 308 307 307 307 307 307 306 306 306 305 303 302 301 300 299 299 298 297 297 297 298 298 298 299 299 299 299 299 299 299 299 299 298 298 298 298 298 298 298 298 297 297 298 297 297 297 297 297 297 297 296 296 296 296
309 307 306 305 304 303 303 303 303 304 307 310 310 310 309 308 307 307 306 307 306 306 305 305 305 304 304 303 303 302 301 300 300 299 299 299 298 298 298 298 298 298 299 299 299 299 299 299 299 298 298 298 298 298 297 297 297 297 297 297 297 296 296 296 297 296 296 296 296 296 296 296 296 296
309 308 308 307 306 304 303 302 302 302 306 308 309 309 309 308 307 307 307 307 306 305 305 305 304 303 301 301 301 300 300 300 300 299 299 298 298 298 298 298 298 298 298 298 298 298 298 298 298 297 296 296 296 296 296 296 296 297 296 296 295 295 295 296 296 296 296 296 296 296 296 296 296 296
309 309 308 307 307 306 304 303 301 300 302 306 307 307 307 306 306 306 306 306 306 306 305 304 303 301 300 300 300 299 300 300 300 299 299 298 298 298 298 298 298 297 297 297 297 297 297 297 296 296 295 294 294 295 295 295 296 296 295 295 295 295 295 295 295 295 295 295 295 295 296 296 296 296
308 308 308 307 306 306 306 305 302 299 299 302 303 304 304 304 304 304 304 304 304 304 304 303 301 300 300 300 299 299 300 300 299 299 299 299 298 298 298 298 297 297 296 296 295 295 295 295 294 294 293 293 293 293 293 294 295 295 294 294 294 293 294 294 295 295 295 295 295 295 295 295 295 295
307 307 307 306 306 306 305 304 302 299 299 300 300 301 302 302 302 302 301 301 301 301 301 301 300 299 300 300 300 300 300 299 299 299 299 298 298 298 297 297 296 295 295 295 294 294 294 294 293 293 293 293 293 293 293 293 294 294 293 293 293 293 293 293 294 294 295 295 295 295 295 295 295 295
307 306 306 306 306 306 305 303 301 299 299 300 300 300 300 300 300 300 299 300 300 300 300 299 299 299 299 300 299 299 299 299 298 298 298 297 296 296 295 295 295 294 294 294 294 294 294 294 293 293 293 293 293 293 293 293 293 293 293 293 292 292 293 293 293 294 294 294 295 295 295 295 295 294
304 305 306 306 305 304 303 301 300 300 300 299 299 299 300 299 298 298 298 299 299 299 298 299 299 299 299 299 298 298 297 297 297 296 296 295 295 295 295 295 294 294 294 294 294 294 294 294 294 294 294 293 293 293 293 293 293 293 293 293 293 293 293 293 293 294 294 294 294 295 295 295 294 294
300 301 303 303 302 302 301 300 300 300 300 299 299 299 299 298 296 296 297 297 296 296 297 298 298 298 297 297 296 296 296 295 295 295 295 295 295 294 294 294 294 294 293 293 293 294 294 294 294 294 294 293 293 293 293 293 293 293 293 293 293 293 293 293 293 293 294 294 294 294 294 295 294 294
300 300 301 301 301 301 301 300 300 300 300 300 299 298 297 297 297 297 297 296 295 295 297 297 297 297 296 296 295 295 295 295 294 294 294 294 294 293 293 293 293 293 293 292 293 293 293 294 294 294 294 293 293 293 293 293 293 293 293 293 293 293 293 293 293 294 294 294 294 294 294 294 294 294
301 301 301 301 301 301 301 301 301 301 300 299 298 297 297 297 298 297 297 297 296 297 297 297 297 296 296 295 294 294 294 294 293 293 293 293 293 292 292 292 292 292 292 292 292 292 293 293 293 294 294 294 294 294 294 294 293 293 293 293 293 293 293 293 293 294 294 293 293 293 293 293 293 293
301 301 302 302 302 302 302 302 301 300 299 298 298 297 297 296 296 297 297 297 297 296 296 296 296 296 295 294 294 293 293 293 292 292 292 292 291 291 291 291 292 292 292 292 292 292 292 292 293 293 293 293 294 294 294 293 293 293 293 294 294 293 293 294 293 293 293 293 293 292 292 292 292 293
302 302 302 302 302 302 302 301 300 299 299 298 298 297 297 296 295 296 296 296 296 295 295 295 295 294 294 293 293 293 293 292 291 291 291 291 291 291 291 291 291 291 292 292 292 291 292 292 293 293 293 293 293 293 293 293 293 294 294 294 294 293 293 293 293 293 293 292 292 292 292 292 292 293
302 302 302 302 302 302 301 300 299 298 298 298 297 296 296 296 296 295 295 295 295 295 294 294 294 293 293 293 293 292 292 291 291 291 291 291 291 291 291 291 291 291 291 291 291 291 292 292 292 293 293 293 293 293 293 293 293 293 293 293 293 293 292 292 292 292 292 292 292 292 292 292 292 292
302 302 302 301 301 300 300 299 298 298 297 297 296 296 296 296 296 295 295 295 295 294 294 294 293 293 293 293 292 292 291 290 290 291 291 291 291 291 291 291 291 291 291 291 291 292 292 292 292 292 293 293 293 293 292 292 292 292 292 292 292 292 292 292 292 292 292 292 292 292 292 292 292 292
302 302 301 301 300 300 299 298 298 297 297 296 296 296 295 295 295 295 295 295 295 294 294 294 293 293 293 293 292 292 291 290 290 291 290 290 291 291 291 291 291 291 291 291 291 292 292 293 293 292 293 293 293 293 292 292 292 292 292 292 293 293 293 293 293 293 292 292 292 292 292 292 291 292
302 301 300 300 300 299 299 298 297 297 296 296 296 296 295 295 295 295 295 294 294 294 294 293 293 293 293 293 292 291 291 291 291 291 291 290 290 291 291 291 290 290 290 291 291 292 292 293 292 292 293 293 293 293 292 292 293 293 293 292 293 293 293 293 293 293 292 292 292 291 291 292 292 292
302 301 300 299 300 299 298 298 297 296 296 296 295 295 295 295 295 294 294 293 293 293 293 293 293 292 292 292 292 291 291 291 291 291 291 290 290 290 290 290 289 290 291 291 292 292 292 292 292 292 292 292 293 293 292 292 293 293 293 293 293 293 293 293 293 292 292 292 291 292 292 292 292 292
302 300 300 299 299 298 298 298 297 296 296 295 295 295 295 294 294 293 293 292 292 292 292 292 293 292 292 292 292 291 291 291 291 291 291 291 290 290 289 289 289 290 291 291 291 292 292 292 292 292 292 292 292 292 292 292 293 293 293 293 293 293 293 292 292 292 292 291 292 292 292 293 293 293
301 300 299 299 298 298 298 298 297 296 295 295 295 295 295 294 293 293 293 292 291 291 292 292 292 292 292 292 292 291 291 291 291 290 290 290 289 289 289 289 290 290 290 291 292 292 292 292 292 292 292 292 292 292 292 293 293 293 293 293 293 293 292 292 292 292 291 292 292 293 293 293 293 293
301 300 299 298 298 298 297 297 296 295 295 295 295 294 294 293 293 293 292 292 291 291 291 292 292 292 292 291 291 290 291 291 291 290 289 289 289 289 289 289 290 290 290 291 292 292 292 292 292 293 293 292 293 293 293 293 293 293 293 293 293 292 292 292 292 291 291 292 292 293 293 293 293 293
299 299 298 298 298 297 297 296 295 295 295 295 294 294 294 293 293 293 292 291 291 291 291 291 291 291 290 290 289 289 290 290 290 289 289 289 289 289 289 289 290 290 291 291 291 292 292 292 292 293 293 293 293 293 294 294 293 293 293 293 293 292 292 292 291 291 291 291 292 292 292 292 292 292
298 298 298 298 297 297 296 296 295 295 295 294 294 294 293 293 293 292 292 291 291 291 291 290 290 290 290 289 289 289 290 290 289 289 289 289 290 289 289 289 290 290 291 291 291 292 292 292 292 293 293 293 294 294 294 294 293 293 293 293 293 292 292 291 291 291 291 291 292 292 292 292 292 291
297 297 297 296 296 295 295 295 295 294 294 294 293 293 293 293 292 292 291 291 290 290 290 290 290 290 290 289 289 289 290 290 289 289 289 289 289 289 289 289 290 290 291 291 291 291 292 292 292 293 293 294 294 294 293 293 293 293 293 293 293 292 291 291 291 291 291 291 292 292 292 292 292 291
Wind_Speed
16 14 14 14 14 12 14 16 16 14 12 9 8 11 11 12 16 18 17 15 12 10 7 6 3 3 6 6 5 5 7 8 7 7 8 8 8 9 9 9 9 10 11 12 12 13 13 13 13 13 13 13 13 12 12 12 12 12 12 11 11 11 10 10 11 11 11 11 10 11 11 11 11 12
15 15 15 16 16 13 13 15 15 14 11 8 8 10 11 10 12 20 19 14 11 10 9 8 6 4 6 6 4 4 7 8 8 8 8 9 10 9 8 9 9 11 12 14 14 15 15 15 15 15 14 14 14 14 13 13 13 13 13 12 12 13 12 12 12 12 12 12 12 12 12 13 13 13
11 13 13 15 15 13 12 14 14 14 12 9 6 6 10 14 11 15 18 15 12 9 8 9 8 6 4 2 4 6 9 9 8 8 10 13 13 9 9 11 12 13 14 16 16 17 17 16 16 16 16 15 15 14 14 14 14 14 14 14 14 14 14 14 14 14 14 14 14 14 14 14 14 15
8 8 9 11 12 11 12 13 11 12 12 11 9 6 8 12 11 10 13 14 13 9 7 7 5 6 6 4 3 6 10 11 8 7 11 15 15 13 14 16 17 18 19 18 18 19 18 18 18 17 17 16 16 15 15 15 15 15 15 15 15 15 15 15 15 16 16 16 16 16 16 16 16 16
5 6 6 6 8 9 12 11 8 9 9 8 9 9 9 10 10 7 6 7 9 9 8 7 5 5 7 6 1 5 10 13 9 5 9 14 15 16 18 19 19 22 23 22 22 21 18 18 18 18 18 18 17 16 15 16 16 16 16 16 16 17 17 17 17 17 17 18 18 18 18 18 18 18
4 5 3 1 4 7 11 11 8 8 7 6 8 10 8 9 9 6 5 5 6 8 8 5 5 7 7 4 3 7 10 11 9 7 10 11 10 13 17 19 21 23 23 25 26 22 17 17 18 19 19 19 19 18 17 17 16 16 17 17 17 18 18 18 19 19 19 19 19 19 20 20 20 20
2 3 2 2 3 5 9 9 7 8 10 9 9 9 6 6 8 7 7 7 6 8 7 4 4 6 7 4 4 6 7 6 5 6 9 5 4 4 10 16 21 22 23 26 27 22 17 17 17 16 17 18 19 19 19 19 18 18 18 18 18 18 18 19 19 20 20 20 21 21 21 21 21 21
5 2 2 2 3 3 4 6 5 6 9 8 6 6 4 2 4 6 7 5 4 6 6 4 4 5 4 2 2 2 3 6 3 2 5 5 4 6 10 17 20 21 24 25 24 22 20 19 18 17 17 17 17 18 18 19 19 19 19 19 19 19 20 20 20 21 21 21 22 22 22 22 22 22
4 4 1 1 0 1 2 5 5 3 5 7 7 7 4 1 1 3 6 5 3 4 4 3 2 0 0 2 3 3 5 8 5 3 5 9 12 13 16 20 21 22 24 23 23 25 25 24 23 22 21 20 19 19 18 18 18 19 19 19 20 20 20 20 20 21 22 22 23 23 23 23 24 23
7 6 3 4 5 5 2 3 4 3 4 5 6 6 5 3 3 1 2 3 2 1 3 3 1 2 2 3 3 4 5 5 3 5 9 11 14 16 19 23 24 24 23 19 21 25 26 26 26 26 25 24 23 22 21 20 20 20 20 19 19 20 20 20 21 21 22 23 23 24 24 24 25 25
10 9 7 6 7 7 4 3 4 5 6 5 3 5 5 5 4 2 2 5 4 2 2 2 2 2 3 5 3 3 7 8 7 10 14 15 16 18 21 25 25 24 21 16 18 22 25 27 28 28 26 25 24 23 22 22 23 24 23 21 21 21 21 21 22 23 23 23 23 24 24 24 25 25
10 9 9 7 5 6 6 6 6 6 7 6 4 5 8 9 8 6 6 7 6 5 5 4 3 2 3 5 4 5 9 10 10 13 17 19 20 21 25 26 23 22 21 20 20 22 25 28 29 28 27 24 22 22 22 23 24 25 25 25 24 24 24 24 25 26 26 26 26 26 25 25 25 24
7 7 7 6 5 6 7 8 9 8 8 7 7 7 8 10 12 11 10 9 8 7 8 7 6 4 2 4 6 8 10 10 11 16 19 21 21 25 29 28 23 22 23 24 24 25 28 30 30 27 25 22 20 20 21 23 24 26 27 27 27 27 27 28 28 29 30 30 29 28 27 27 26 26
4 5 5 4 4 6 8 10 11 11 11 10 10 10 11 11 12 12 12 12 11 10 9 8 7 6 5 6 8 10 11 12 13 17 19 21 24 28 31 30 28 26 25 26 28 29 30 29 27 25 22 20 18 18 20 22 24 26 27 28 29 29 30 30 30 31 31 31 30 29 29 28 27 27
4 4 4 4 3 4 6 7 8 10 11 12 11 11 12 12 13 14 14 13 11 11 10 10 9 8 8 10 12 13 14 15 15 18 21 24 27 29 30 33 33 30 27 28 31 31 29 26 25 24 20 18 17 19 21 22 23 25 27 29 30 31 32 32 31 31 30 29 29 29 29 28 28 28
5 3 1 2 3 4 5 5 5 6 7 9 9 9 10 12 13 14 15 14 12 12 12 11 12 12 11 13 16 17 18 19 20 22 24 26 27 29 31 34 34 31 29 29 30 30 27 24 23 23 20 19 19 19 21 22 23 24 25 28 30 31 33 33 31 30 28 28 28 28 27 27 28 28
5 4 1 2 3 4 5 5 5 5 6 7 8 9 9 10 11 12 13 14 13 14 14 13 14 15 15 16 17 18 20 22 23 25 27 27 29 30 32 33 32 29 26 24 25 26 25 23 22 22 23 22 20 21 22 23 22 22 24 27 29 30 31 31 30 29 28 26 26 26 27 27 28 28
8 8 5 0 3 4 4 4 5 5 6 7 7 9 9 9 10 12 12 13 14 15 16 16 17 18 18 17 18 19 20 22 24 25 27 29 30 31 31 30 29 26 22 20 22 25 24 21 22 23 23 22 22 23 22 20 20 22 24 25 26 28 29 29 28 27 25 25 26 27 27 28 28 28
4 7 8 6 4 5 3 4 6 7 7 7 7 9 10 10 11 12 12 11 12 13 14 15 16 18 17 17 18 19 21 23 25 27 28 30 31 30 29 28 25 22 19 16 18 21 21 20 23 24 24 23 22 21 20 21 22 23 22 22 24 26 27 27 26 24 24 25 26 27 27 27 28 28
3 4 7 8 7 5 5 5 7 8 7 6 6 7 8 9 10 11 11 11 10 11 12 13 14 15 16 17 19 21 22 25 26 28 28 28 27 26 26 25 23 19 16 15 17 21 23 23 23 24 24 23 22 22 23 24 22 20 20 22 24 24 22 22 22 23 24 25 25 25 25 25 27 27
3 5 7 8 6 5 5 5 5 6 4 2 2 5 8 9 9 8 8 9 9 10 12 14 15 17 18 19 20 22 25 27 27 28 27 24 23 23 22 21 19 17 17 19 20 21 22 21 21 24 25 25 25 25 24 23 21 22 22 23 22 20 18 18 20 22 23 23 23 23 23 24 25 24
2 4 5 6 6 5 5 4 2 3 5 6 4 5 7 8 9 9 9 9 11 13 15 17 18 19 20 21 22 23 24 24 23 22 21 20 21 21 19 17 18 17 17 19 20 20 22 23 24 28 31 31 29 26 24 25 26 26 26 25 24 22 19 18 19 20 21 21 21 22 22 23 22 22
2 3 2 3 5 5 4 3 2 3 7 8 7 7 8 7 8 11 13 13 15 17 18 19 20 21 22 21 20 20 19 18 17 18 19 20 20 18 14 15 17 16 16 19 21 22 25 26 27 29 31 32 32 29 28 29 30 29 27 25 23 19 18 18 18 18 19 20 20 20 20 21 21 22
4 5 3 2 4 5 4 4 4 3 7 10 10 10 11 11 12 13 15 16 18 17 18 21 23 22 19 16 15 16 16 16 15 15 17 18 16 14 13 16 18 17 16 20 23 25 27 29 30 30 28 29 31 32 30 30 30 27 23 19 17 17 16 17 18 18 18 19 20 19 18 19 21 23
7 6 5 4 5 6 6 7 8 6 7 11 12 12 13 13 14 14 15 17 18 19 21 23 21 16 12 12 14 15 15 14 13 13 15 17 16 16 17 20 23 24 24 26 28 29 31 32 31 30 26 24 25 27 28 27 25 22 19 17 17 17 17 18 19 18 17 18 19 19 18 19 20 21
7 5 6 7 8 9 10 10 11 10 8 10 12 14 15 16 16 17 18 20 21 22 22 20 15 12 11 12 11 10 11 12 13 15 18 19 19 20 22 25 28 30 30 30 28 26 26 26 25 23 22 21 22 24 26 26 24 22 22 21 20 19 18 18 19 18 17 17 18 19 19 19 19 19
7 5 6 7 9 11 13 13 13 13 11 11 13 14 15 17 17 18 17 17 16 15 15 14 12 11 11 10 10 11 13 16 18 20 22 23 25 26 26 27 26 25 25 24 21 19 19 20 20 19 19 21 24 25 26 26 26 27 26 25 24 23 21 19 18 17 16 17 18 19 19 19 20 20
8 7 7 8 9 10 12 14 15 14 12 12 14 15 16 16 15 13 10 8 6 7 9 10 10 9 9 12 15 18 20 23 24 25 25 25 24 23 21 20 20 19 18 18 17 17 18 19 19 19 19 22 24 26 26 26 27 27 28 27 26 24 22 19 18 17 17 18 19 19 19 20 20 20
9 9 10 10 10 11 13 15 15 13 12 12 13 13 13 12 10 8 5 4 6 9 9 9 10 12 14 16 19 22 24 24 24 22 21 19 17 16 16 17 17 16 15 15 15 16 17 18 18 19 20 21 22 23 24 25 26 26 26 27 26 24 22 20 18 18 18 19 19 18 19 20 20 20
9 11 12 12 13 14 14 14 12 10 10 11 11 10 10 9 7 6 5 7 10 11 9 9 12 15 17 19 21 22 21 19 17 17 16 16 16 16 16 17 17 16 14 14 13 13 14 16 17 19 20 21 21 21 22 23 25 26 26 25 25 24 22 20 19 19 20 20 20 21 20 18 18 19
9 10 11 12 13 13 12 11 10 10 9 10 9 7 6 5 4 6 8 10 10 6 5 9 13 14 17 19 19 17 14 13 13 14 15 16 16 16 16 17 18 17 16 14 12 11 13 15 16 18 19 21 22 22 22 22 24 26 25 23 22 22 21 21 21 20 20 21 22 21 19 18 18 19
9 10 11 12 13 12 11 10 10 9 9 9 7 4 2 2 4 8 10 10 7 4 5 12 16 16 19 20 17 14 13 12 12 13 14 16 16 16 16 16 16 17 17 17 15 13 13 13 14 16 18 20 22 23 23 23 23 24 24 22 20 21 22 21 21 21 21 22 22 21 21 20 19 19
8 9 10 12 12 12 10 10 10 6 4 5 6 6 5 4 5 6 6 6 7 8 11 17 20 20 20 17 13 13 13 12 12 14 15 15 15 15 14 15 16 17 18 18 18 17 14 13 13 15 17 20 21 21 21 22 22 21 21 21 21 22 22 21 21 22 22 24 24 24 23 21 19 19
9 9 10 11 12 11 10 9 7 2 2 6 8 9 9 7 5 7 8 9 12 13 15 18 20 18 16 13 12 12 14 15 16 15 13 14 14 14 15 16 16 17 18 18 19 18 16 15 15 17 19 19 18 18 17 18 18 18 17 19 20 21 22 21 21 22 23 23 23 23 23 21 19 19
11 11 11 11 10 8 7 6 4 3 8 10 8 7 8 8 7 8 9 10 12 13 15 15 14 12 11 12 12 14 16 16 15 14 14 15 16 15 15 16 17 18 18 19 18 17 17 18 18 19 19 18 19 19 15 11 13 16 17 17 19 20 20 20 19 19 20 20 20 21 22 22 21 20
12 12 11 9 7 5 5 5 6 8 11 10 8 7 7 6 7 8 9 8 10 12 14 14 12 11 11 12 15 17 16 14 13 14 15 15 15 15 16 16 17 18 18 17 17 17 17 17 16 17 18 19 21 22 19 13 11 14 16 17 17 17 18 18 18 18 19 19 20 20 21 23 24 23
13 11 9 8 7 8 8 8 10 12 11 9 9 9 8 6 5 7 9 9 9 8 8 8 10 10 11 15 17 18 15 13 13 15 15 15 15 16 16 17 18 18 17 16 16 15 15 14 12 12 16 19 20 21 22 18 13 10 12 15 16 17 18 19 20 21 21 21 22 22 23 25 26 24
13 12 11 11 11 10 10 10 12 13 11 9 9 9 7 5 6 8 9 9 9 9 9 8 9 10 13 16 17 16 15 14 15 16 17 17 16 16 17 19 20 17 15 15 15 15 15 14 12 12 15 18 17 18 22 21 15 11 10 13 16 19 21 21 21 21 22 23 24 24 24 23 21 18
13 13 13 12 12 12 12 13 13 12 10 10 9 5 4 4 6 8 8 8 9 11 10 8 9 12 13 15 15 15 15 15 16 16 17 17 17 17 19 20 18 15 15 16 17 17 16 15 14 13 15 17 18 18 19 20 18 16 15 15 18 21 22 21 20 22 24 25 25 23 19 15 12 10
14 13 13 13 14 14 14 14 14 12 11 10 7 3 3 6 6 6 7 8 11 10 6 3 7 12 14 15 15 16 15 15 16 16 16 16 18 18 17 15 13 13 16 18 18 18 16 15 14 13 15 17 17 16 16 17 19 19 19 19 20 20 20 20 21 25 26 24 22 20 17 13 10 8
14 12 13 15 16 14 12 13 14 11 7 6 6 6 8 10 9 7 7 8 10 8 3 1 4 8 11 13 14 14 14 14 15 15 16 16 16 15 13 12 12 14 16 18 19 17 15 14 13 12 12 12 11 12 13 16 19 21 21 20 19 18 18 20 22 24 24 22 20 18 16 13 11 10
15 15 16 18 18 16 14 14 12 9 6 5 6 7 8 7 6 6 7 8 8 6 4 4 5 7 9 12 14 15 15 14 15 15 15 14 15 16 16 15 14 14 15 17 18 17 15 14 13 11 9 8 9 11 14 17 19 21 20 18 16 17 19 20 21 20 20 19 19 18 16 14 13 12
18 20 21 21 20 20 17 11 7 9 10 9 8 7 5 2 1 4 5 5 5 7 8 8 9 9 10 12 15 16 16 15 14 12 12 14 15 16 16 14 13 14 15 16 17 17 16 16 14 11 9 8 9 11 14 15 17 17 16 14 15 17 18 19 18 17 17 16 15 15 14 13 12 11
19 20 20 20 19 16 12 7 6 9 11 10 8 7 4 3 4 5 5 6 9 11 11 11 10 10 11 13 15 15 15 13 12 11 12 13 15 15 15 14 13 14 15 15 16 17 18 16 14 11 9 8 9 11 13 14 14 14 13 12 13 16 17 16 15 15 14 13 12 12 12 12 12 11
15 15 15 15 14 13 12 11 10 11 11 9 7 6 4 5 8 8 6 8 12 12 11 11 11 10 11 13 14 14 15 15 14 12 12 12 13 14 15 14 14 14 14 13 15 18 18 17 15 12 8 6 7 9 12 13 13 13 12 12 13 15 16 15 14 12 12 11 12 13 14 13 13 12
Wind_Direction
95 90 94 97 102 119 128 127 122 113 126 136 91 98 124 131 142 139 123 121 127 119 110 111 101 38 41 54 56 45 16 1 8 28 22 6 4 5 360 358 356 353 351 347 345 343 339 335 331 328 324 321 318 316 314 312 308 304 301 299 297 296 293 290 287 285 282 278 275 273 271 271 271 271
97 93 91 91 86 94 118 129 123 111 115 120 93 97 103 98 138 150 136 127 130 122 115 116 110 68 49 53 43 25 21 7 356 11 19 8 4 0 357 2 359 355 354 350 344 339 334 330 327 324 320 316 313 311 308 307 306 304 302 299 297 296 296 295 292 290 287 284 281 278 275 273 271 269
93 95 96 94 84 82 102 116 120 113 105 103 97 105 101 84 101 146 145 131 130 139 141 133 125 119 108 40 5 14 26 24 7 11 20 9 359 352 354 356 352 351 351 349 345 337 330 326 322 320 318 315 312 308 305 303 302 301 301 300 299 298 296 295 294 292 291 288 286 283 280 278 276 274
81 86 94 103 98 96 98 92 99 110 101 95 88 86 102 87 82 125 140 132 132 139 136 133 136 138 135 117 39 9 14 21 15 4 7 6 358 349 348 348 345 344 343 343 345 340 331 326 323 322 320 318 314 310 307 305 302 300 299 298 299 298 297 296 294 293 291 289 288 286 284 282 279 277
94 87 86 111 117 114 105 86 82 100 88 75 79 82 91 87 75 85 112 125 131 130 133 140 130 117 134 151 189 354 14 21 22 4 354 1 358 344 341 343 341 341 340 339 341 341 335 330 327 325 323 321 319 315 311 308 306 303 301 299 298 297 297 296 295 293 291 289 287 285 284 282 281 279
102 113 117 123 115 121 119 110 114 123 104 84 98 101 97 100 95 86 93 102 107 115 128 143 119 105 118 150 303 359 21 23 28 13 343 351 2 346 341 341 338 338 336 333 335 338 340 336 333 329 326 325 323 320 317 313 310 307 305 304 302 300 298 296 295 293 292 290 287 285 283 282 281 279
25 92 101 27 69 124 140 134 139 140 116 99 112 118 113 125 131 126 113 85 75 107 115 124 141 115 92 68 347 3 18 12 33 19 351 2 56 5 338 335 334 332 328 326 327 333 339 341 338 332 327 326 324 322 320 318 315 313 310 309 307 305 302 300 298 295 293 291 289 287 284 282 281 279
306 337 85 37 53 110 144 126 118 130 115 98 104 111 99 138 154 148 138 100 91 129 115 109 146 123 79 31 290 285 308 300 283 346 345 323 289 285 309 326 329 325 325 326 326 328 333 337 337 335 333 330 325 321 319 318 317 314 312 311 310 308 306 303 301 298 295 292 289 288 286 284 282 279
276 295 296 272 238 149 134 114 109 125 129 121 122 117 101 65 80 148 158 130 115 157 138 121 163 209 350 258 251 243 294 314 309 288 295 295 290 287 305 326 331 329 331 332 327 324 325 330 336 337 335 334 330 326 322 320 316 312 311 313 311 309 307 303 301 298 295 292 290 288 286 285 284 282
233 248 238 218 229 253 260 155 160 182 175 160 156 154 150 137 102 97 179 147 111 166 154 138 225 300 301 279 261 263 297 327 338 291 274 274 281 288 308 327 334 335 335 332 323 318 317 323 332 335 335 334 331 328 326 325 322 317 316 317 314 310 308 304 301 298 295 293 291 289 288 286 284 283
246 253 252 233 226 243 266 243 215 211 223 233 213 196 202 191 158 123 181 186 172 190 213 203 228 271 317 313 294 267 276 271 267 274 275 280 287 299 318 330 333 333 333 327 315 307 307 318 327 330 331 330 327 327 328 328 325 321 321 322 318 313 310 306 303 301 297 295 293 291 289 287 285 283
248 260 269 268 244 232 245 256 255 253 254 259 247 228 228 224 213 202 205 212 211 222 236 238 239 249 318 316 296 272 276 280 280 280 287 296 301 311 323 328 329 328 324 318 309 303 307 317 323 325 327 327 327 327 324 322 321 321 322 322 320 318 315 312 310 308 305 301 298 296 293 290 287 284
235 246 254 264 263 247 246 254 265 279 281 270 262 257 245 239 241 240 237 244 254 256 252 254 261 268 280 288 286 284 287 291 289 288 294 300 304 313 320 322 324 323 317 314 311 309 313 317 320 324 325 324 325 323 320 319 320 320 320 320 320 319 317 315 315 314 310 305 301 299 296 294 291 288
194 207 203 208 238 254 255 254 258 266 272 270 267 269 265 261 262 262 260 264 270 268 262 262 270 276 268 268 279 283 279 277 282 289 296 300 305 312 316 317 319 318 316 315 312 312 316 317 318 321 323 326 330 326 320 317 316 317 318 318 317 317 317 317 318 315 311 307 304 301 298 296 294 291
127 160 168 184 225 259 261 261 262 264 268 270 268 264 263 264 265 267 269 272 272 264 253 251 262 270 269 269 272 271 270 274 283 291 295 301 307 312 315 315 315 316 317 315 313 314 317 317 317 321 327 332 329 319 312 311 312 314 315 315 315 315 315 316 315 314 312 310 308 305 302 300 297 294
86 95 149 219 238 265 269 268 277 277 273 273 270 262 257 257 258 263 268 269 266 263 258 256 259 262 262 267 272 273 276 283 289 292 296 303 308 310 312 313 313 315 316 315 313 313 316 319 323 326 328 325 318 312 310 311 311 311 310 311 311 310 310 311 313 314 314 313 312 311 309 307 304 301
122 121 112 276 260 263 271 272 281 297 298 285 271 261 254 250 250 254 259 261 259 259 263 263 258 257 263 272 277 280 283 287 292 295 299 304 307 309 310 310 310 312 315 316 315 315 321 328 326 323 321 317 312 311 312 312 310 307 306 306 306 305 305 309 315 318 318 316 314 313 314 312 310 308
165 153 136 85 285 265 254 262 279 307 318 301 272 259 257 254 252 252 253 255 254 254 259 261 258 261 269 276 280 283 286 290 295 299 302 305 307 308 308 307 309 313 320 326 324 320 325 326 317 313 313 310 310 312 313 311 307 306 306 306 304 303 306 312 320 324 325 323 320 317 316 314 312 310
170 155 150 166 238 266 267 275 288 306 319 309 281 264 260 257 258 260 261 261 260 259 259 260 260 264 271 277 281 286 291 295 299 301 304 305 306 305 305 306 310 317 323 325 314 305 305 304 302 303 303 304 308 309 305 304 306 308 308 304 301 304 311 320 325 326 325 324 323 322 321 318 315 314
176 164 172 194 221 244 258 267 282 298 309 309 299 288 280 275 272 270 266 261 258 258 258 260 264 269 274 280 286 291 295 298 300 301 302 302 302 301 303 306 308 311 309 299 288 286 290 295 298 299 298 300 301 299 299 304 306 302 297 297 301 306 315 322 323 321 320 321 321 322 322 321 320 319
199 201 210 226 229 227 243 250 258 272 267 242 280 300 301 304 305 293 274 266 269 272 272 272 274 276 279 284 290 295 297 298 300 300 299 299 299 302 304 303 301 304 305 299 295 294 295 296 294 291 292 294 296 299 301 300 297 293 291 293 296 299 304 313 316 317 318 318 317 318 319 320 322 323
249 254 239 246 246 236 245 254 244 233 208 178 188 260 290 313 315 302 292 288 285 281 278 278 280 281 283 288 292 295 298 300 301 300 298 299 304 307 306 301 300 307 309 302 299 297 293 290 288 288 290 291 293 295 294 292 293 294 293 291 293 292 292 299 308 313 314 313 313 315 317 318 319 319
260 300 304 292 284 276 269 274 269 216 198 180 181 222 248 259 268 273 278 281 280 280 281 284 288 291 292 294 297 302 309 313 313 310 307 310 315 318 312 302 304 309 306 297 295 294 292 290 290 292 294 295 295 294 293 293 295 296 296 299 303 302 298 296 299 302 305 308 311 312 312 313 312 312
264 284 287 299 310 313 312 304 297 240 208 198 197 216 233 237 243 255 261 266 272 277 280 285 292 300 308 312 316 322 326 323 320 317 314 314 317 313 300 291 291 290 286 284 287 290 292 293 294 295 296 297 296 295 295 295 297 301 305 309 311 314 312 307 302 302 305 309 309 308 308 308 308 309
267 270 264 272 294 303 309 310 304 282 233 217 219 228 240 246 250 255 259 265 270 274 281 289 299 310 318 319 322 326 325 318 310 304 299 297 296 293 287 284 284 285 283 282 283 285 286 289 293 296 297 297 297 299 299 301 306 314 318 317 315 315 314 310 307 308 310 310 310 311 312 310 309 310
252 234 244 272 292 292 294 303 303 294 272 249 245 250 257 262 264 264 265 268 272 277 282 287 291 291 291 295 302 306 303 297 290 287 287 287 287 286 283 283 286 289 289 287 288 291 293 296 299 301 304 307 310 312 313 316 322 327 328 327 324 320 318 316 313 311 311 312 314 316 315 314 315 316
247 247 245 260 275 280 287 299 302 295 285 278 275 274 276 279 281 280 278 278 280 282 281 279 282 288 288 282 269 259 258 263 268 272 276 279 281 283 285 287 287 288 290 293 300 308 314 315 313 312 315 318 318 317 317 318 321 324 326 326 323 322 325 326 320 318 320 319 316 314 314 317 318 318
245 259 254 253 260 269 281 292 296 294 289 284 283 285 286 289 292 295 297 301 298 284 280 286 292 288 274 264 260 258 260 264 270 275 279 284 288 292 295 296 294 295 298 305 312 317 317 317 318 318 317 314 312 312 312 313 315 319 320 321 323 327 329 328 327 327 325 318 314 315 318 320 318 319
248 254 255 258 267 276 282 286 289 290 288 285 286 288 291 295 299 298 292 280 268 263 267 276 272 259 256 261 265 269 274 277 281 284 287 289 290 290 291 292 292 296 300 303 307 310 309 309 309 308 306 306 305 306 308 309 313 317 319 321 325 328 330 330 330 328 322 319 319 318 317 318 320 324
244 252 258 263 269 275 276 279 282 284 283 286 288 288 291 296 293 280 274 278 277 271 264 264 265 263 266 271 275 280 285 288 290 290 287 284 283 284 286 288 289 291 293 294 296 298 298 298 297 297 300 302 303 304 306 307 310 315 321 323 322 325 331 335 332 327 323 321 319 314 312 314 320 321
234 246 254 259 263 268 274 282 289 289 288 289 283 280 294 305 293 288 297 302 304 304 278 267 268 271 277 284 287 287 285 285 289 293 290 288 288 289 292 295 298 302 307 310 307 300 294 295 296 298 300 301 300 301 303 302 304 310 318 322 322 322 328 330 327 324 321 317 315 314 312 312 312 314
233 238 245 253 260 270 284 293 290 289 294 292 283 279 292 281 280 302 315 321 329 334 270 266 271 278 285 291 291 287 286 288 291 293 291 290 291 294 299 305 311 316 320 321 318 309 299 294 296 298 299 298 298 300 301 302 303 306 311 317 319 318 319 322 320 316 315 315 315 314 310 309 311 314
227 233 243 254 261 270 283 288 287 295 309 298 292 295 287 259 248 269 290 295 289 273 263 268 277 285 291 296 300 303 306 303 296 292 293 297 302 308 314 317 317 317 317 315 314 313 310 306 303 302 297 294 295 299 303 303 305 308 311 315 317 317 318 319 314 309 309 313 315 315 312 312 314 316
221 234 244 252 259 268 278 286 293 296 219 247 267 279 284 285 262 245 249 262 272 280 289 290 290 292 299 306 311 310 305 299 298 305 313 315 318 321 321 316 313 313 312 309 310 315 318 316 311 303 298 296 299 306 310 309 312 321 324 320 316 314 312 309 306 306 309 314 316 317 317 317 317 317
230 239 248 255 263 270 271 275 277 221 217 234 247 256 277 295 286 268 272 279 284 300 317 315 304 301 310 315 311 303 298 300 309 323 328 323 320 320 317 314 313 313 312 310 312 316 316 314 310 306 305 307 311 319 330 331 322 322 321 314 310 310 310 311 313 314 316 318 318 317 317 317 317 316
239 244 248 250 251 240 218 219 228 222 221 231 238 234 245 270 280 281 286 289 295 313 328 330 328 325 319 311 302 298 301 312 323 324 321 317 316 316 315 314 312 311 311 311 312 314 315 314 312 311 313 314 314 319 329 337 326 315 312 311 314 318 319 320 321 320 321 322 322 320 316 313 312 313
239 240 233 218 211 211 204 204 220 227 227 235 243 240 236 240 260 274 274 272 282 302 319 328 335 329 309 295 293 299 310 323 325 320 317 316 316 316 314 310 306 305 306 308 310 317 324 325 322 319 318 316 312 312 317 326 336 336 326 322 325 328 327 325 323 323 325 325 323 320 315 310 309 313
230 227 215 202 201 209 207 208 223 233 232 230 234 242 246 235 233 254 267 269 270 268 263 269 283 290 291 296 302 311 321 325 323 322 320 318 317 315 310 306 306 307 309 312 319 330 338 336 332 326 319 313 310 308 309 316 333 355 352 336 329 327 328 328 326 324 326 325 323 321 319 316 316 319
222 217 209 200 198 206 213 218 228 232 227 226 234 255 278 249 236 251 264 268 275 280 282 288 298 302 307 314 318 321 323 323 321 320 319 317 314 310 305 303 307 313 315 320 329 338 341 339 334 324 309 299 297 298 299 307 326 348 352 338 326 324 327 329 326 325 327 327 325 325 327 329 331 331
226 216 207 203 205 212 220 227 232 230 227 227 224 212 221 233 238 250 259 272 292 305 321 344 328 320 318 318 319 319 319 319 317 315 312 308 305 305 305 306 313 321 322 324 331 337 340 340 334 319 304 294 290 291 294 304 322 337 338 330 326 327 327 327 326 326 327 328 329 331 337 345 351 347
233 216 208 212 212 208 214 229 235 233 228 224 215 220 239 248 253 267 283 300 316 329 355 11 315 314 311 309 311 313 313 314 312 307 302 302 308 320 331 332 330 327 323 323 330 338 343 344 337 323 309 299 294 297 302 308 315 324 328 328 328 327 324 324 326 327 329 334 339 342 345 350 355 351
223 206 203 209 206 197 205 226 231 216 201 205 219 242 258 261 263 279 299 320 332 329 312 289 283 283 289 299 308 311 308 303 297 295 303 320 334 341 340 334 329 327 324 326 334 341 345 346 344 334 318 308 308 310 309 309 315 322 327 329 326 321 323 327 330 334 339 345 348 349 351 354 355 351
212 207 205 208 208 203 206 213 199 188 202 215 224 236 246 236 253 280 293 309 307 293 287 290 291 290 299 314 322 321 313 303 299 308 332 347 342 334 331 330 330 330 329 331 337 342 345 348 351 343 326 319 326 324 318 317 322 328 332 329 322 320 326 334 339 346 351 351 351 355 1 3 3 4
216 217 212 212 210 204 200 193 185 203 219 221 219 225 230 223 241 258 274 279 271 269 278 292 300 307 317 325 330 331 331 331 337 346 348 339 329 328 333 335 332 331 334 336 338 340 344 348 352 348 333 326 333 337 332 330 330 331 330 327 323 325 332 341 349 355 356 356 4 17 24 24 26 27
209 207 200 200 196 187 180 180 193 215 224 213 203 215 233 241 245 247 252 263 267 272 284 296 303 312 319 325 334 342 345 345 345 340 329 324 326 334 339 338 336 336 338 337 336 338 343 349 353 352 342 334 344 349 342 336 332 329 327 326 328 333 338 346 355 0 2 9 22 30 31 30 31 30